Regional Weather Roundup
Issued by NWS

Home | Current Version | Previous Version | Graphics & Text | Print | Product List | Glossary On
Versions: 1 2 3 4 5 6 7 8 9 10 11 12 13 14 15 16 17 18 19 20 21 22 23 24 25 26 27 28 29 30 31 32 33 34 35 36 37 38 39 40 41 42 43 44 45 46 47 48 49 50
000
ASUS45 KSLC 091310
RWRUT

UTAH REGIONAL WEATHER ROUNDUP
NATIONAL WEATHER SERVICE SALT LAKE CITY UT
600 AM MST FRI DEC 09 2016

UTZ001>011-023>025-091400-

NORTHERN UTAH

CITY           SKY/WX    TMP DP  RH WIND       PRES   REMARKS
BRIGHAM CITY     N/A     30  26  85 CALM      30.21R
HILL AFB       CLOUDY    34  29  82 S12       30.17S WCI  25
LOGAN          MIX PCPN  30  26  85 E3        30.18R
OGDEN          CLOUDY    30  27  88 CALM      30.18F
SALT LAKE CITY CLOUDY    32  29  88 SE3       30.19S
WENDOVER       MOCLDY    21  16  79 W3        30.19F
HEBER CITY     CLOUDY    32  30  93 CALM      30.19S FOG

$$

UTZ011>015-024>027-091400-

CENTRAL/NORTHEAST UTAH

CITY           SKY/WX    TMP DP  RH WIND       PRES   REMARKS
PROVO AIRPORT  CLOUDY    39  31  72 SE13      30.23F WCI  31
MOAB/CANYONLAN PTCLDY    20   7  57 NW6       30.30R WCI  12
DELTA          CLOUDY    36  21  55 SE6       30.21R WCI  31
PRICE          PTCLDY    17   8  67 NE3       30.26R
RICHFIELD      MOCLDY    27  21  80 CALM      30.24R
ROOSEVELT      CLOUDY    12   9  85 CALM      30.29R
VERNAL         CLOUDY    19  13  77 CALM      30.26R

$$

UTZ013>016-019>022-027-091400-

SOUTHERN UTAH

CITY           SKY/WX    TMP DP  RH WIND       PRES   REMARKS
BRYCE CANYON   PTCLDY    10   7  87 S6        30.26R WCI   0
CEDAR CITY     MOCLDY    23  19  85 NE3       30.25R
MILFORD        MOCLDY    34  16  47 S18       30.23R WCI  23
ST GEORGE      PTSUNNY   30  16  55 SW3       30.32F
HANKSVILLE     MOCLDY    18   9  68 CALM      30.34R
KANAB          CLOUDY    28  21  74 N2        30.34S
BLANDING       CLEAR     26  16  68 NE6       30.37R WCI  19

$$

REGIONAL REPORTS     COLORADO/ARIZONA

CITY           SKY/WX    TMP DP  RH WIND       PRES   REMARKS
CRAIG, CO      CLOUDY    25  19  78 CALM      30.19R
GRAND JUNCTION CLOUDY    25  17  72 CALM      30.30S
RIFLE, CO      CLOUDY    24  16  71 CALM      30.31R
MONTROSE, CO   CLOUDY    27  15  61 CALM      30.31R
CORTEZ, CO     CLOUDY    27  23  85 CALM      30.31R
COLORADO CITY    N/A     23  21  93 SE5       30.32S WCI  17
PAGE, AZ       PTCLDY    30  10  43 SW3       30.29F
GRAND CANYON   CLOUDY    30  27  88 CALM      30.31S
KINGMAN, AZ    CLOUDY    44  21  40 S5        30.27S
FLAGSTAFF, AZ  NOT AVBL

$$

REGIONAL REPORTS    NEVADA/IDAHO/WYOMING

CITY           SKY/WX    TMP DP  RH WIND       PRES   REMARKS
LAS VEGAS, NV  CLOUDY    47  12  24 S3        30.28S
ELY, NY        MOCLDY    17  10  74 S8        30.23F WCI   7
ELKO, NV       CLOUDY    31  27  85 CALM      30.14S
POCATELLO, ID  CLOUDY    21  18  88 NE5       30.15S WCI  15
BURLEY, ID     MOCLDY    23  20  88 VRB6      30.10S WCI  16
FORT BRIDGER,  PTSUNNY   32  32 100 SW18G24   30.14S WCI  21
EVANSTON, WY   SNOW      31  28  89 SW20      30.13R VSB 1/2 WCI  19
ROCK SPRINGS,  LGT SNOW  13  10  88 CALM      30.12S FOG
KEMMERER, WY   LGT SNOW  28  27  93 W13       30.12  WCI  18

$$



USA.gov is the U.S. government's official web portal to all federal, state and local government web resources and services.